Regional Weather Roundup
Issued by NWS

Home | Current Version | Previous Version | Graphics & Text | Print | Product List | Glossary On
Versions: 1 2 3 4 5 6 7 8 9 10 11 12 13 14 15 16 17 18 19 20 21 22 23 24 25 26 27 28 29 30 31 32 33 34 35 36 37 38 39 40 41 42 43 44 45 46 47 48 49 50
000
ASUS43 KLMK 081910
RWRKY
KENTUCKY REGIONAL WEATHER ROUNDUP
NATIONAL WEATHER SERVICE LOUISVILLE KY
200 PM EST THU DEC 08 2016

NOTE "FAIR" INDICATES FEW OR NO CLOUDS BELOW 12,000 FEET
WITH NO SIGNIFICANT WEATHER AND/OR OBSTRUCTIONS TO VISIBILITY.

KYZ001>023-026-027-061>063-070>075-082000-
WESTERN AND SOUTH CENTRAL KENTUCKY

CITY           SKY/WX    TMP DP  RH WIND       PRES   REMARKS
PADUCAH        SUNNY     35  11  36 NW9       30.47S WCI  28
HENDERSON      SUNNY     34  16  47 NW14      30.43F WCI  24
OWENSBORO      SUNNY     33  17  51 W15       30.42F WCI  23
HOPKINSVILLE   SUNNY     35  13  41 NW10      30.42F WCI  27
BOWLING GREEN  SUNNY     36  15  42 NW14      30.41S WCI  27
GLASGOW        MOSUNNY   35  19  52 W10       30.38S WCI  27
$$

KYZ024-025-028>034-038-045-046-053-082000-
NORTH CENTRAL KENTUCKY

CITY           SKY/WX    TMP DP  RH WIND       PRES   REMARKS
LOUISVILLE/SDF MOSUNNY   36  12  37 W14G21    30.35F WCI  27
LOUISVILLE/LOU SUNNY     35  14  42 W16       30.35F WCI  25
FORT KNOX      SUNNY     33  15  48 W15G22    30.33F WCI  23
$$

KYZ035>037-039>044-047>052-055>060-089>105-082000-
NORTHEAST KENTUCKY

CITY           SKY/WX    TMP DP  RH WIND       PRES   REMARKS
LEXINGTON      SUNNY     34  16  47 W10       30.30S WCI  26
COVINGTON      MOSUNNY   32  16  51 NW20      30.27S WCI  20
FRANKFORT      SUNNY     34  16  47 W12G21    30.30F WCI  25
$$

KYZ054-064>069-076>088-106>120-082000-
SOUTHEAST KENTUCKY

CITY           SKY/WX    TMP DP  RH WIND       PRES   REMARKS
JACKSON        SUNNY     36  17  46 NW9       30.23F WCI  29
LONDON         SUNNY     37  16  42 W13       30.28R WCI  29
SOMERSET       SUNNY     34  18  51 W12G17    30.34R WCI  25
MIDDLESBORO    MOSUNNY   40  21  46 NW9       30.28S WCI  34
MONTICELLO     PTCLDY    36  21  54 NW14      30.34S WCI  27
$$





USA.gov is the U.S. government's official web portal to all federal, state and local government web resources and services.